Monroe, WI

9:02 PM CDT on April 24, 2017 (GMT -0500)
Monroe Municipal

Weather History for KEFT - August, 2013

Change the Weather History Date:

Wednesday, August 7, 2013

  Actual Average Record
Temperature  
Mean Temperature 74 °F -  
Max Temperature 83 °F 82 °F 91 °F (2001)
Min Temperature 66 °F 60 °F 21 °F (1998)
Cooling Degree Days 10    
Growing Degree Days 24 (Base 50)    
Moisture  
Dew Point 66 °F    
Average Humidity 78    
Maximum Humidity 100    
Minimum Humidity 38    
Precipitation  
Precipitation 0.00 in - - ()
Sea Level Pressure  
Sea Level Pressure 29.87 in    
Wind  
Wind Speed 10 mph (WNW)    
Max Wind Speed 15 mph    
Max Gust Speed 24 mph    
Visibility 9 miles    
Events Thunderstorm    
Averages and records for this station are not official NWS values.
T = Trace of Precipitation, MM = Missing Value Source: NWS Daily Summary

Daily Weather History Graph

Daily Weather History Graph

Search for Another Location

Airport or City:

Trip Planner

Search our weather history database for the weather conditions in past years. The results will help you decide how hot, cold, wet, or windy it might be!

Date:

Astronomy

Aug. 07, 2013 Rise Set
Actual Time 5:56 AM CDT 8:10 PM CDT
Civil Twilight 5:25 AM CDT 8:41 PM CDT
Nautical Twilight 4:46 AM CDT 9:20 PM CDT
Astronomical Twilight 4:04 AM CDT 10:02 PM CDT
Moon 6:47 AM CDT (8/7) 8:14 PM CDT (8/7)
Length of Visible Light 15h 16m
Length of Day
14h 13m
New Moon, 1% of the Moon is Illuminated
Aug 7
New Moon
Aug 14
First Quarter
Aug 20
Full
Aug 28
Last Quarter
Sep 5
New

Hourly Weather History & Observations

Time (CDT) Temp. Heat Index Dew Point Humidity Pressure Visibility Wind Dir Wind Speed Gust Speed Precip Events Conditions
12:15 AM 73.4 °F - 73.4 °F 100% 29.82 in 5.0 mi SSW 12.7 mph - N/A   Clear
12:35 AM 73.6 °F - 73.6 °F 100% 29.82 in 7.0 mi SSW 11.5 mph 18.4 mph N/A   Clear
12:55 AM 73.4 °F - 73.4 °F 100% 29.83 in 5.0 mi SSW 11.5 mph - N/A   Clear
1:15 AM 72.9 °F - 72.9 °F 100% 29.82 in 5.0 mi SSW 11.5 mph - N/A   Clear
1:35 AM 73.2 °F - 73.2 °F 100% 29.81 in 7.0 mi SSW 15.0 mph 20.7 mph N/A Thunderstorm Thunderstorm
1:55 AM 73.9 °F - 73.9 °F 100% 29.80 in 7.0 mi SW 12.7 mph - N/A   Scattered Clouds
2:15 AM 73.9 °F - 73.9 °F 100% 29.80 in 7.0 mi SSW 11.5 mph - N/A   Clear
2:35 AM 73.0 °F - 73.0 °F 100% 29.80 in 5.0 mi SSW 11.5 mph - N/A   Clear
2:55 AM 72.7 °F - 72.7 °F 100% 29.80 in 4.0 mi SSW 10.4 mph - N/A   Scattered Clouds
3:15 AM 72.5 °F - 72.5 °F 100% 29.79 in 5.0 mi SSW 11.5 mph - N/A   Scattered Clouds
3:35 AM 72.5 °F - 72.5 °F 100% 29.79 in 7.0 mi SW 12.7 mph - N/A   Clear
3:55 AM 72.3 °F - 72.3 °F 100% 29.80 in 5.0 mi SW 11.5 mph - N/A   Scattered Clouds
4:15 AM 72.5 °F - 72.5 °F 100% 29.79 in 4.0 mi SW 9.2 mph - N/A   Mostly Cloudy
4:35 AM 72.5 °F - 72.5 °F 100% 29.79 in 2.0 mi SSW 10.4 mph - N/A   Mostly Cloudy
4:55 AM 72.1 °F - 72.1 °F 100% 29.79 in 1.8 mi SW 10.4 mph - N/A   Overcast
5:15 AM 71.6 °F - 71.6 °F 100% 29.79 in 5.0 mi SW 8.1 mph - N/A   Scattered Clouds
5:35 AM 71.6 °F - 71.6 °F 100% 29.79 in 7.0 mi WSW 9.2 mph 16.1 mph N/A   Scattered Clouds
5:55 AM 71.6 °F - 71.6 °F 100% 29.80 in 7.0 mi WSW 10.4 mph - N/A   Scattered Clouds
6:15 AM 71.4 °F - 71.4 °F 100% 29.80 in 10.0 mi WSW 9.2 mph - N/A   Scattered Clouds
6:35 AM 71.6 °F - 71.6 °F 100% 29.81 in 10.0 mi SW 9.2 mph - N/A   Clear
6:55 AM 72.0 °F - 72.0 °F 100% 29.82 in 10.0 mi WSW 9.2 mph - N/A   Clear
7:15 AM 72.5 °F - 72.5 °F 100% 29.82 in 10.0 mi WSW 9.2 mph - N/A   Clear
7:35 AM 72.9 °F - 72.9 °F 100% 29.83 in 10.0 mi SW 8.1 mph - N/A   Scattered Clouds
7:55 AM 73.4 °F - 73.4 °F 100% 29.83 in 10.0 mi WSW 9.2 mph - N/A   Mostly Cloudy
8:15 AM 73.6 °F - 73.6 °F 100% 29.84 in 10.0 mi WSW 6.9 mph - N/A   Overcast
8:35 AM 73.9 °F - 73.8 °F 99% 29.84 in 10.0 mi West 8.1 mph - N/A   Overcast
8:55 AM 74.5 °F - 73.8 °F 98% 29.84 in 10.0 mi West 4.6 mph - N/A   Overcast
9:15 AM 74.8 °F - 73.0 °F 94% 29.84 in 10.0 mi West 5.8 mph - N/A   Overcast
9:35 AM 76.3 °F - 72.7 °F 89% 29.84 in 10.0 mi West 5.8 mph - N/A   Mostly Cloudy
9:55 AM 77.9 °F - 66.9 °F 69% 29.84 in 10.0 mi WNW 6.9 mph - N/A   Overcast
10:15 AM 77.2 °F - 66.6 °F 70% 29.85 in 10.0 mi West 6.9 mph - N/A   Mostly Cloudy
10:35 AM 77.9 °F - 66.7 °F 68% 29.85 in 10.0 mi WNW 6.9 mph - N/A   Mostly Cloudy
10:55 AM 79.5 °F - 66.6 °F 64% 29.86 in 10.0 mi WNW 6.9 mph - N/A   Overcast
11:15 AM 80.4 °F 82.1 °F 64.2 °F 58% 29.86 in 10.0 mi WNW 5.8 mph - N/A   Overcast
11:35 AM 81.0 °F 81.9 °F 62.1 °F 52% 29.87 in 10.0 mi West 8.1 mph - N/A   Overcast
11:55 AM 81.5 °F 82.1 °F 60.8 °F 49% 29.87 in 10.0 mi West 8.1 mph - N/A   Mostly Cloudy
12:15 PM 82.2 °F 82.9 °F 61.5 °F 49% 29.87 in 10.0 mi WNW 11.5 mph - N/A   Scattered Clouds
12:35 PM 82.8 °F 81.9 °F 54.9 °F 38% 29.87 in 10.0 mi WNW 9.2 mph - N/A   Clear
12:55 PM 82.9 °F 82.8 °F 59.0 °F 44% 29.87 in 10.0 mi North 9.2 mph - N/A   Clear
1:15 PM 82.6 °F 82.2 °F 57.6 °F 42% 29.87 in 10.0 mi NNW 12.7 mph 17.3 mph N/A   Scattered Clouds
1:35 PM 82.2 °F 82.4 °F 59.4 °F 46% 29.88 in 10.0 mi NNW 9.2 mph 21.9 mph N/A   Scattered Clouds
1:55 PM 81.0 °F 81.7 °F 60.6 °F 50% 29.88 in 10.0 mi NNW 10.4 mph 19.6 mph N/A   Mostly Cloudy
2:15 PM 81.1 °F 81.5 °F 59.0 °F 47% 29.88 in 10.0 mi NW 9.2 mph 16.1 mph N/A   Scattered Clouds
2:35 PM 81.9 °F 82.1 °F 59.0 °F 46% 29.88 in 10.0 mi NNW 8.1 mph - N/A   Clear
2:55 PM 82.9 °F 82.6 °F 57.9 °F 42% 29.88 in 10.0 mi WNW 6.9 mph - N/A   Scattered Clouds
3:15 PM 79.7 °F - 61.0 °F 53% 29.88 in 10.0 mi North 8.1 mph - N/A   Mostly Cloudy
3:35 PM 81.0 °F 82.1 °F 62.2 °F 53% 29.88 in 10.0 mi North 15.0 mph 19.6 mph N/A   Mostly Cloudy
3:55 PM 79.9 °F - 62.4 °F 55% 29.89 in 10.0 mi North 12.7 mph 18.4 mph N/A   Scattered Clouds
4:15 PM 77.9 °F - 63.0 °F 60% 29.90 in 10.0 mi North 10.4 mph 24.2 mph N/A   Mostly Cloudy
4:35 PM 77.0 °F - 62.2 °F 60% 29.90 in 10.0 mi North 8.1 mph 19.6 mph N/A   Mostly Cloudy
4:55 PM 77.4 °F - 61.2 °F 57% 29.90 in 10.0 mi North 15.0 mph 19.6 mph N/A   Scattered Clouds
5:15 PM 76.8 °F - 61.0 °F 58% 29.91 in 10.0 mi North 9.2 mph - N/A   Scattered Clouds
5:35 PM 75.7 °F - 60.4 °F 59% 29.91 in 10.0 mi North 11.5 mph 17.3 mph N/A   Scattered Clouds
5:55 PM 75.7 °F - 59.4 °F 57% 29.91 in 10.0 mi North 13.8 mph 17.3 mph N/A   Scattered Clouds
6:15 PM 75.2 °F - 59.0 °F 57% 29.92 in 10.0 mi North 10.4 mph - N/A   Clear
6:35 PM 74.5 °F - 58.6 °F 58% 29.92 in 10.0 mi North 9.2 mph - N/A   Clear
6:55 PM 74.1 °F - 58.3 °F 58% 29.93 in 10.0 mi North 6.9 mph - N/A   Clear
7:35 PM 72.5 °F - 59.0 °F 62% 29.94 in 10.0 mi North 4.6 mph - N/A   Clear
7:55 PM 71.8 °F - 59.2 °F 64% 29.95 in 10.0 mi NNW 3.5 mph - N/A   Clear
8:15 PM 71.2 °F - 59.4 °F 66% 29.95 in 10.0 mi NW 3.5 mph - N/A   Clear
8:35 PM 70.9 °F - 59.4 °F 67% 29.96 in 10.0 mi WNW 3.5 mph - N/A   Clear
8:55 PM 71.1 °F - 59.0 °F 66% 29.97 in 10.0 mi NW 4.6 mph - N/A   Clear
9:15 PM 70.5 °F - 59.2 °F 67% 29.98 in 10.0 mi NW 4.6 mph - N/A   Clear
9:35 PM 69.3 °F - 59.7 °F 72% 29.98 in 10.0 mi WNW 8.1 mph - N/A   Clear
9:55 PM 68.7 °F - 61.3 °F 77% 29.98 in 10.0 mi NW 5.8 mph - N/A   Clear
10:15 PM 68.5 °F - 64.4 °F 87% 29.98 in 10.0 mi NW 6.9 mph - N/A   Clear
10:35 PM 68.0 °F - 65.3 °F 91% 29.98 in 10.0 mi NW 6.9 mph - N/A   Clear
10:55 PM 68.0 °F - 66.2 °F 94% 29.98 in 10.0 mi NW 8.1 mph - N/A   Clear
11:15 PM 67.5 °F - 66.9 °F 98% 29.98 in 10.0 mi NW 6.9 mph - N/A   Clear
11:35 PM 67.3 °F - 67.3 °F 100% 29.98 in 10.0 mi NW 6.9 mph - N/A   Clear
11:55 PM 66.2 °F - 66.2 °F 100% 29.98 in 10.0 mi NNW 3.5 mph - N/A   Clear